GFSNE_con_lsi_057.txt.gz
Lid_Strength_Index
19 19 19 19 19 19 18 18 19 22 21 20 19 17 17 16 15 15 15 12 10 9 8 7 7 6 5 5 4 4 4 4 4 4 4 4 4 3
19 19 19 19 19 19 19 19 19 20 21 19 19 18 17 15 14 15 14 11 11 9 8 7 6 5 5 4 4 3 3 3 3 3 4 4 4 4
20 20 19 19 20 20 19 19 19 20 21 19 18 17 17 16 15 14 13 13 12 9 7 6 6 5 5 4 4 4 4 4 4 4 4 4 5 5
20 20 20 19 20 20 20 20 20 19 20 20 18 17 16 15 14 14 12 11 12 9 6 6 5 5 5 5 5 5 5 5 5 5 5 5 4 5
19 19 19 19 20 20 20 20 19 18 18 18 18 16 15 14 14 13 12 12 10 8 6 6 6 6 6 6 6 6 6 6 6 6 5 5 5 5
19 19 19 19 19 19 19 19 18 18 17 17 17 16 14 13 13 14 14 12 11 9 8 8 8 8 7 7 7 7 7 6 6 5 6 6 6 5
19 18 18 18 16 16 18 18 17 17 17 17 16 15 14 13 14 13 13 12 12 10 11 11 11 11 10 8 8 8 6 6 6 6 5 6 6 6
19 18 18 17 15 14 13 12 13 17 21 21 15 14 13 13 12 12 12 13 14 10 13 13 11 11 10 10 8 7 7 7 6 6 6 5 6 6
18 17 17 16 17 17 14 11 10 9 9 12 13 12 12 12 11 11 11 12 13 11 13 14 11 12 10 9 7 7 7 7 6 6 6 6 6 6
17 17 17 16 16 16 16 15 14 13 12 11 11 11 11 9 9 9 11 14 13 12 11 15 12 12 11 10 7 7 7 7 7 7 7 6 6 6
16 17 16 16 13 11 13 15 14 13 10 8 7 6 6 6 7 11 17 22 17 14 12 13 12 14 12 11 9 8 8 8 8 8 7 7 7 7
17 16 13 14 12 10 12 15 15 13 12 13 12 11 10 12 9 11 13 17 16 18 12 14 13 13 16 12 11 11 11 10 9 8 8 8 7 9
16 15 14 11 9 8 8 11 12 10 12 10 14 14 14 14 13 12 12 12 15 15 12 11 14 15 15 16 13 12 12 12 12 11 9 9 8 8
15 14 14 10 9 8 8 7 7 7 12 18 18 17 16 15 14 13 12 12 12 12 11 11 14 15 16 17 17 13 13 13 13 13 12 10 9 9
13 12 10 9 8 8 7 6 7 11 15 18 16 15 15 14 13 13 13 13 13 12 11 12 13 14 14 16 17 16 16 14 14 13 13 13 12 12
9 11 10 8 8 8 10 10 10 11 13 14 15 15 15 16 16 15 16 15 17 16 13 12 12 14 15 15 16 17 15 17 14 14 13 12 12 11
15 21 20 16 13 12 12 12 12 12 13 13 14 16 17 17 17 16 16 18 19 19 17 15 14 14 14 15 17 17 16 15 14 13 13 13 13 12
15 15 15 15 14 14 14 14 14 14 13 13 15 16 17 17 18 19 18 20 20 19 19 17 17 17 17 18 13 16 15 15 14 14 13 13 13 10
16 18 20 19 18 16 15 15 14 14 14 14 15 17 18 19 21 21 19 19 20 20 19 18 19 19 20 21 17 12 15 15 14 14 13 13 13 11
24 26 27 26 25 23 22 19 17 18 17 16 17 20 20 20 25 23 20 22 21 21 21 20 20 18 19 20 19 16 12 14 14 14 14 13 11 8
31 31 31 30 28 27 25 24 22 20 20 20 22 22 22 23 27 22 21 20 20 22 22 21 17 15 16 18 21 20 16 12 12 13 13 13 13 14
33 33 32 33 33 30 27 27 28 28 26 23 22 22 22 22 22 23 22 21 24 21 21 19 17 18 21 20 20 19 17 15 14 11 10 11 13 14
33 34 33 33 33 30 29 30 31 27 27 22 22 23 23 25 23 21 21 22 22 23 23 21 20 20 22 21 20 19 20 18 17 17 15 11 11 10

GFSNE_con_lsi_060.txt.gz
Lid_Strength_Index
19 19 19 20 19 19 19 19 20 22 22 21 20 18 18 17 16 17 16 14 11 10 9 8 7 6 6 5 5 4 3 3 2 3 2 2 2 2
19 20 20 20 19 19 19 19 19 21 22 20 19 19 18 17 16 16 16 12 12 10 9 7 6 6 6 5 4 4 3 3 3 2 2 2 2 2
20 20 20 19 20 20 20 20 20 20 21 20 19 19 19 18 17 16 14 14 14 11 9 7 7 6 6 5 5 4 4 4 4 3 3 3 2 2
20 20 20 19 21 21 21 20 20 20 21 21 20 19 19 18 17 16 14 13 13 11 8 8 7 6 6 5 5 5 6 6 6 5 4 3 3 3
19 20 20 20 20 21 21 21 20 19 20 20 20 19 18 17 16 15 14 14 12 10 9 9 7 6 6 5 5 6 6 6 6 5 4 4 4 3
19 19 19 19 20 20 20 20 20 20 19 20 20 19 18 16 15 16 15 13 13 11 10 10 7 8 7 6 6 7 7 6 5 6 6 5 5 4
19 18 19 19 17 18 19 19 19 20 19 20 19 19 17 16 15 15 15 14 13 12 13 12 11 11 10 8 8 7 6 5 5 5 5 4 5 5
19 19 18 18 16 14 14 14 16 19 24 23 18 17 15 15 14 14 14 14 16 12 13 14 11 12 11 10 6 5 6 5 5 5 6 6 6 5
18 18 18 18 18 18 15 12 12 11 11 16 16 14 14 14 13 14 13 13 14 12 13 15 12 13 11 9 6 5 5 5 6 6 6 6 6 6
18 18 18 18 17 18 18 17 17 16 14 13 13 13 13 12 12 11 12 16 14 13 12 16 13 14 12 11 7 6 5 6 6 7 6 6 6 6
17 17 17 17 15 13 16 18 16 15 12 10 9 8 7 6 7 13 21 23 17 15 13 14 14 14 13 12 9 7 6 7 7 7 7 7 7 6
16 16 15 15 14 13 14 15 16 14 14 15 12 11 9 11 9 11 13 20 18 19 13 15 15 14 18 13 11 11 11 9 8 8 8 8 7 9
16 16 15 13 11 10 9 12 13 12 13 12 13 13 14 13 13 13 12 13 15 16 13 12 15 15 16 17 14 12 12 11 12 11 9 9 8 8
15 15 15 12 10 9 9 8 8 8 9 15 17 16 15 14 14 13 12 12 12 13 12 12 15 15 17 17 17 14 13 12 12 13 12 11 10 9
14 14 12 11 10 9 8 8 8 9 11 15 15 15 14 13 13 13 13 14 14 13 12 12 14 14 15 17 18 16 15 14 13 13 13 13 12 12
12 15 12 10 9 10 12 11 12 11 11 12 13 13 14 15 15 15 16 17 20 18 14 13 13 14 16 16 16 18 16 17 14 14 12 12 12 12
20 24 22 20 18 17 16 14 13 13 13 13 13 13 15 15 16 16 16 19 23 21 19 16 14 14 15 16 18 17 17 16 14 13 14 14 13 11
22 24 22 19 17 16 16 17 17 18 17 16 16 16 16 16 17 17 18 21 24 21 19 18 18 18 19 18 13 17 16 15 14 14 13 14 14 12
21 24 23 22 22 19 19 19 20 19 19 19 17 16 16 18 18 19 19 20 23 20 19 18 20 22 22 22 17 13 16 16 15 15 14 14 14 13
26 23 23 26 26 26 25 24 24 23 22 21 20 21 21 20 21 21 21 23 22 21 21 19 22 21 20 21 19 17 13 15 15 15 15 13 12 9
32 32 32 31 30 30 30 30 29 27 27 28 28 26 24 24 25 23 21 20 20 21 22 20 18 15 17 20 24 21 17 12 12 14 13 13 15 15
34 32 33 35 34 34 33 32 32 32 32 32 30 29 28 26 25 26 22 21 21 20 20 19 19 18 22 21 21 20 19 17 14 12 11 11 13 16
33 34 35 36 36 35 34 34 35 31 33 32 31 30 29 29 28 22 22 21 21 21 21 22 21 20 22 21 21 20 21 19 18 18 16 12 11 11

GFSNE_con_lsi_063.txt.gz
Lid_Strength_Index
17 17 17 17 17 17 17 17 17 19 19 18 17 16 15 15 16 15 15 14 12 11 10 10 8 7 7 7 6 5 5 4 4 4 3 3 2 2
17 18 18 18 17 17 17 17 17 17 18 17 16 16 16 16 15 15 15 14 13 12 11 10 8 7 7 7 6 5 5 4 4 4 3 3 3 3
18 18 19 18 18 18 18 18 18 17 18 17 17 17 17 16 16 15 14 14 13 13 11 9 8 8 7 7 6 5 5 5 5 5 4 3 3 3
19 19 19 18 18 18 18 18 18 18 18 19 18 17 17 16 16 15 15 14 14 13 10 9 8 8 7 6 6 5 6 6 6 5 4 4 3 3
19 18 18 18 19 19 18 18 18 18 18 19 18 17 17 16 16 15 14 14 14 12 10 10 9 8 8 7 6 6 6 7 6 5 5 4 3 3
18 18 18 18 18 18 18 18 18 18 19 19 19 18 17 16 15 16 15 13 13 12 11 11 9 9 8 8 7 7 6 6 5 5 5 4 4 4
18 18 17 17 16 17 18 18 18 18 18 18 19 18 17 17 16 15 15 14 13 12 12 11 11 11 10 9 9 7 6 6 6 6 5 4 4 4
18 18 17 16 16 14 14 15 16 18 18 18 17 18 16 16 15 14 14 15 15 12 13 13 11 11 11 10 7 6 6 6 6 6 6 5 4 5
17 17 17 17 16 16 14 13 13 13 13 16 16 15 15 14 13 13 13 13 14 12 13 14 11 12 11 10 7 6 6 6 6 6 6 5 5 5
17 17 17 17 17 17 17 17 16 15 13 12 13 13 13 12 12 11 12 13 13 12 12 15 12 13 11 10 8 7 7 6 7 6 6 6 6 6
16 17 17 16 15 14 16 17 16 15 14 12 11 10 9 8 8 10 14 14 13 12 12 14 13 13 12 12 10 8 7 7 7 6 6 6 6 6
16 16 15 15 14 13 13 15 16 15 15 14 13 11 9 10 8 9 10 13 14 15 12 14 13 13 15 12 11 11 10 9 7 7 7 7 7 8
15 15 15 12 11 11 11 13 14 12 13 12 12 12 12 11 11 10 11 11 13 14 12 12 14 14 15 15 13 12 11 10 10 10 9 9 8 8
13 14 14 12 11 11 11 10 9 8 9 10 11 12 13 12 12 11 11 11 11 12 11 12 14 14 15 16 16 13 12 10 10 11 11 10 9 9
12 12 12 12 11 10 9 8 9 9 10 10 11 12 12 11 11 12 12 12 12 12 12 13 13 14 14 16 16 15 14 13 11 11 12 12 11 11
11 12 11 11 10 10 12 11 11 11 12 12 12 11 12 13 13 12 14 14 15 15 14 13 14 14 15 14 14 16 14 16 12 12 11 12 12 11
19 18 17 16 15 15 15 14 14 13 13 13 13 13 13 13 14 13 14 15 17 17 17 15 14 14 14 15 16 15 15 14 12 13 13 13 12 11
19 19 18 17 16 16 17 16 16 16 15 15 15 15 15 15 15 15 16 17 18 18 18 17 16 17 17 15 13 15 14 14 13 14 13 14 13 11
18 19 18 19 19 18 18 18 18 17 17 17 17 17 16 17 17 17 17 17 18 18 17 17 18 19 20 20 15 13 15 14 14 14 14 14 14 12
22 21 21 21 21 21 20 20 20 20 19 19 19 19 20 19 19 19 19 20 19 19 19 19 18 18 19 18 18 16 13 14 14 14 14 13 11 9
25 24 24 24 24 23 23 23 24 22 22 22 21 22 22 21 21 21 20 20 20 19 20 20 16 15 16 16 18 17 15 12 12 13 13 13 14 13
26 25 27 27 26 25 25 25 24 24 23 23 23 23 22 22 21 22 22 21 20 19 19 18 16 16 17 17 18 18 17 15 13 12 11 11 13 15
27 27 27 27 27 27 27 26 26 23 25 25 24 24 24 23 23 22 21 22 21 20 20 19 19 18 18 18 19 18 18 17 16 16 14 11 11 11

GFSNE_con_lsi_069.txt.gz
Lid_Strength_Index
11 12 13 14 14 14 14 14 15 18 18 16 16 14 14 14 14 15 14 13 13 12 12 11 11 10 9 9 8 8 7 6 7 7 6 6 6 5
13 14 15 15 15 15 15 15 15 15 16 15 15 15 14 15 14 15 14 14 13 12 12 12 11 10 9 9 8 7 7 7 6 6 6 6 5 4
14 15 15 15 16 16 16 16 16 15 16 16 15 15 15 15 15 15 14 14 13 12 12 12 11 10 9 9 8 8 7 7 7 7 7 5 5 3
16 16 17 16 17 17 16 16 16 16 16 16 16 16 16 14 14 15 15 14 14 13 11 11 11 10 9 9 8 7 7 7 8 7 6 4 4 3
16 17 17 17 18 17 17 17 17 18 16 16 16 16 15 15 15 14 14 14 13 12 11 11 10 9 10 9 8 8 8 8 8 7 5 5 4 3
16 16 17 17 17 17 18 17 17 17 16 17 16 16 16 15 15 16 15 14 14 13 12 11 10 11 9 8 8 8 8 8 7 6 6 5 4 4
17 17 17 17 15 16 18 18 17 16 16 16 17 16 16 16 16 15 15 15 14 13 13 13 13 11 11 9 9 9 8 7 6 6 6 5 5 5
18 18 17 17 16 15 16 15 15 15 15 15 16 16 15 15 15 15 15 15 16 12 13 13 11 12 11 11 9 8 8 6 6 6 5 5 5 5
18 18 17 17 17 17 16 14 14 13 13 14 15 14 15 14 14 14 14 14 14 13 13 14 12 13 12 11 8 7 6 6 6 6 6 6 6 6
17 17 17 17 18 17 16 15 15 14 13 13 13 14 14 13 13 13 13 14 13 11 11 15 13 14 12 12 8 7 6 6 6 6 6 6 6 6
17 16 15 17 15 14 16 16 16 15 12 11 11 10 10 10 10 11 13 13 13 12 11 13 13 14 14 13 10 8 7 7 7 7 7 7 7 6
16 16 15 14 13 13 15 16 16 15 15 14 14 13 12 12 10 11 11 13 13 13 13 14 14 13 15 12 11 11 11 10 9 8 8 7 7 9
17 16 14 12 12 12 12 14 14 12 13 13 13 13 13 13 12 11 11 11 13 13 10 11 13 13 13 14 14 13 12 13 12 11 9 8 7 8
16 15 14 12 11 11 11 11 11 11 12 12 13 13 12 11 11 12 12 12 12 12 11 12 14 14 15 16 17 15 14 13 12 12 11 10 8 8
13 12 12 11 10 10 10 9 10 11 11 12 11 11 12 13 13 14 13 13 13 13 12 12 13 14 15 17 18 17 17 15 13 13 12 11 12 11
12 12 11 11 11 11 12 11 11 10 10 11 12 13 13 14 14 14 15 16 17 17 13 13 14 15 17 17 17 18 17 18 14 14 13 12 12 11
12 12 12 12 12 13 12 11 11 13 14 13 14 14 14 14 15 16 17 18 19 18 18 16 14 14 15 16 19 17 17 16 14 14 13 13 12 11
14 15 15 14 14 14 14 14 13 15 14 14 15 16 16 17 17 18 18 19 20 19 19 18 17 18 18 17 14 16 15 14 14 14 13 14 14 12
14 14 14 14 14 13 14 14 15 15 17 17 17 17 17 18 19 19 19 19 21 20 20 19 19 19 22 22 17 12 15 14 14 14 13 14 14 13
13 14 14 13 14 14 16 16 17 18 18 18 19 20 21 21 21 21 20 22 22 22 23 21 18 18 19 20 20 17 11 13 13 14 14 13 12 9
16 15 15 16 16 16 17 18 18 19 19 21 22 22 22 23 23 22 21 21 22 24 23 20 17 15 17 18 19 18 15 10 11 13 13 15 16 15
18 18 18 18 18 18 19 20 21 22 22 23 22 22 22 22 23 24 24 23 24 22 20 18 17 17 17 18 19 18 17 15 12 10 10 11 14 17
20 20 20 21 21 21 21 22 22 20 21 21 21 23 24 25 24 22 24 24 25 24 23 22 20 18 18 18 19 18 18 17 16 15 15 10 10 10

GFSNE_con_lsi_072.txt.gz
Lid_Strength_Index
10 11 14 15 15 17 17 18 19 21 20 19 18 16 17 16 16 17 17 14 12 12 11 11 11 10 9 8 8 8 7 7 7 7 6 7 6 6
12 14 15 16 16 16 17 18 17 18 20 18 18 17 16 16 16 16 16 13 13 12 11 11 10 10 9 9 8 8 8 7 7 7 7 6 6 5
14 15 16 16 17 17 18 18 18 17 19 20 18 17 17 17 17 16 16 16 16 12 11 11 10 10 9 9 9 8 8 7 7 7 7 6 6 6
15 16 16 17 17 17 18 18 18 17 17 20 19 19 18 17 17 17 16 15 15 13 11 10 10 10 9 9 9 8 8 7 7 8 7 7 6 6
15 16 17 17 18 18 18 18 18 18 18 18 19 18 18 17 17 16 16 15 14 12 10 10 10 9 9 9 9 8 7 8 8 8 8 8 7 7
15 16 17 17 18 18 18 18 18 19 19 19 19 19 18 17 17 17 17 16 15 14 12 12 10 10 10 9 8 8 8 8 8 8 8 8 8 7
17 17 17 17 16 16 17 18 18 18 19 19 19 18 18 17 18 16 16 16 15 14 14 14 14 14 13 10 9 9 9 8 8 8 8 8 8 7
17 18 17 16 15 15 15 15 16 18 18 18 18 18 17 16 16 16 16 17 18 14 16 15 14 13 12 12 9 8 8 8 8 8 8 8 8 7
17 18 17 16 16 16 15 14 15 15 15 15 16 16 16 16 15 16 15 15 16 14 15 16 14 14 12 12 9 9 9 9 9 8 8 8 8 8
17 17 17 17 17 17 16 17 17 16 15 14 15 15 15 14 14 14 14 15 15 14 14 16 14 14 13 13 10 10 9 9 9 9 9 9 9 8
17 16 16 16 15 15 17 17 16 15 13 13 12 12 11 11 12 15 17 18 15 14 12 14 14 14 14 14 13 11 10 10 10 10 10 9 9 9
17 16 15 15 14 14 17 17 17 17 16 16 14 12 11 12 11 13 16 17 16 17 14 15 16 16 18 15 14 14 14 12 11 11 11 10 10 12
17 16 15 13 13 12 14 16 15 14 14 15 15 15 14 14 14 14 13 14 17 16 13 15 18 18 19 18 17 15 15 15 15 14 12 11 11 11
16 15 14 12 12 12 12 12 11 11 13 14 15 15 15 14 14 14 13 13 13 13 14 15 19 19 21 20 20 16 16 15 15 16 15 13 12 11
15 15 14 13 12 11 11 11 12 12 12 14 14 14 14 15 14 14 14 14 15 15 14 15 17 16 19 22 20 19 18 17 16 16 15 15 14 13
13 14 13 13 11 11 12 11 11 12 12 13 14 15 14 15 16 16 19 19 22 22 16 16 16 16 18 18 18 20 18 19 17 15 14 14 13 12
13 13 13 14 13 13 14 13 14 15 15 15 15 16 16 16 17 19 20 23 24 23 22 20 17 16 17 18 21 19 18 16 15 15 15 14 13 12
14 14 14 13 13 14 15 16 15 15 15 16 19 19 19 20 20 21 22 25 25 24 24 22 21 22 23 21 15 19 18 16 16 15 13 14 15 13
14 14 15 16 16 15 15 15 16 16 18 17 18 20 20 19 21 22 21 22 26 25 24 23 24 25 30 29 21 14 18 17 15 15 13 14 14 13
16 16 16 15 15 16 17 18 19 21 21 21 22 22 22 23 23 23 21 26 27 28 29 27 24 24 24 25 25 19 14 16 15 15 15 13 12 10
18 18 18 19 20 21 23 22 21 21 20 22 24 25 24 24 27 22 23 24 26 29 29 25 20 16 19 24 26 24 18 13 13 15 14 15 16 15
22 22 23 22 22 21 22 22 21 23 23 24 25 24 25 23 23 28 28 28 30 27 25 21 20 21 23 21 21 21 19 16 14 12 11 12 14 16
25 25 25 25 25 24 22 23 24 24 24 24 26 25 25 27 24 25 28 29 29 29 28 27 24 22 22 21 20 20 20 19 18 18 16 12 11 10

GFSNE_con_lsi_075.txt.gz
Lid_Strength_Index
9 10 10 11 13 14 15 16 17 20 20 20 19 16 16 17 16 15 17 15 12 12 11 11 10 10 9 8 8 7 7 7 7 6 6 7 7 6
9 10 10 12 12 14 15 16 17 17 19 18 18 17 16 16 16 16 17 15 13 12 12 11 10 10 9 9 8 8 7 7 6 7 7 7 7 6
9 10 11 13 14 15 16 16 17 17 18 19 18 17 17 17 17 16 17 17 16 13 12 11 10 9 9 9 8 8 8 7 7 7 7 7 6 6
11 12 12 14 15 15 16 17 17 17 18 19 19 19 18 17 18 18 18 17 16 13 11 11 10 9 9 9 8 8 8 8 8 8 7 7 7 7
11 13 14 15 15 16 16 17 17 17 18 19 20 19 19 18 18 18 17 16 16 14 11 10 10 9 9 9 9 9 8 8 8 8 8 7 7 8
13 13 15 15 15 16 17 17 18 18 18 18 19 20 19 18 18 18 17 16 16 15 13 12 11 11 9 9 9 9 9 8 8 8 8 8 8 8
15 15 15 16 15 16 17 17 17 18 18 19 19 20 19 19 19 17 18 17 16 15 15 15 15 14 14 12 11 10 9 8 8 8 8 8 9 9
16 16 16 16 15 14 14 15 16 18 19 19 19 19 18 18 17 17 17 17 18 15 16 16 15 14 14 13 10 9 8 8 8 9 9 9 10 10
16 16 17 16 16 15 14 14 15 14 15 17 18 17 17 16 16 17 16 16 17 15 16 17 14 15 13 12 10 9 9 9 9 10 10 10 10 10
16 16 16 16 15 16 16 16 16 16 15 15 15 15 16 15 15 15 15 16 16 15 15 19 16 16 14 13 10 10 10 11 11 12 12 11 11 10
16 16 15 16 14 14 16 16 17 16 14 13 14 14 13 13 13 15 17 18 18 16 15 16 16 16 15 15 14 12 12 13 13 13 12 12 11 11
16 16 15 15 13 13 16 16 16 16 16 16 15 14 12 12 11 13 14 17 18 19 16 18 17 17 20 17 16 16 16 15 14 13 13 12 11 13
16 16 15 13 12 12 14 15 15 15 15 16 16 15 15 14 14 13 13 14 18 18 15 17 18 19 23 21 18 17 18 17 17 16 13 13 12 12
16 15 14 12 12 11 13 13 12 14 16 15 16 15 15 15 14 14 14 14 15 15 15 16 20 20 24 25 22 18 18 17 16 16 15 14 13 12
14 14 13 11 11 11 11 11 13 13 14 15 15 14 14 14 14 15 15 15 16 15 14 15 17 18 20 24 23 20 19 18 16 16 15 16 16 15
13 13 12 12 12 12 13 12 12 12 12 13 13 15 15 16 16 16 17 17 19 19 16 16 16 18 22 20 20 20 19 21 17 16 16 16 15 14
13 13 13 14 14 13 13 13 12 13 13 14 15 16 16 16 17 17 18 19 21 21 22 21 18 18 18 19 25 21 20 19 17 16 17 16 15 14
12 13 13 13 14 14 13 14 15 15 15 16 16 16 17 17 18 19 19 20 21 23 25 23 22 24 25 23 17 21 20 19 17 17 16 17 16 14
14 13 13 14 14 14 15 16 17 17 17 17 17 17 17 18 18 19 19 21 24 24 25 24 25 26 32 31 23 15 20 19 18 18 16 16 16 14
14 15 16 16 17 17 17 18 19 19 19 19 19 20 19 19 20 20 20 23 25 28 30 29 25 25 27 27 27 21 15 18 18 17 16 15 14 11
18 19 19 21 21 21 22 23 22 22 22 22 23 21 20 21 25 23 21 22 25 28 29 25 21 18 20 25 28 25 20 15 15 16 15 16 17 16
23 23 27 28 28 26 26 25 25 26 25 25 25 24 25 26 26 26 25 25 26 26 25 22 20 23 25 23 24 23 21 18 16 14 12 12 16 17
27 28 28 28 28 28 28 27 27 26 28 30 30 30 29 30 27 23 25 26 27 27 26 26 24 23 24 23 25 23 23 21 19 19 18 12 11 11